Location: Bazinghen
(50.8246°N, 1.6616°E)
Time: 00:55:52
(UTC+00:00)

STARLINK-1232 - Pass Details

Date: 09 April 2020
Orbit: 548 x 551 km, 53.0° (Epoch: 30 May)

Event Time Altitude Azimuth Distance (km) Brightness Sun altitude
Rises 19:44:12 0° 290° (WNW) 2,703 9.3 -10.4°
Reaches altitude 10° 19:46:34 10° 282° (WNW) 1,808 7.6 -10.7°
Maximum altitude 19:50:18 35° 216° (SW) 894 4.8 -11.2°
Enters shadow 19:53:36 12° 153° (SSE) 1,652 5.6 -11.7°
